User: anonymous   Login
Location: *
(40.7873°S, 98.7174°E)
Time: 10:53:23
(UTC+00:00)
Language:

USA 305 - Orbit

View from above orbital plane
View from above orbital plane
View from above satellite
View from above satellite

Ground track
Ground track

The orbit data is extracted from the following two-line orbital elements,

1 45873U 20046A   22225.89207713 0.00010523  00000-0  70071-3 0    01
2 45873  53.9758 222.5133 0006906 164.8744 195.1392 15.06633388    02
Epoch (UTC): 13 August 2022 21:24:35
Eccentricity: 0.0006906
inclination: 53.9758°
perigee height: 542 km
apogee height: 551 km
right ascension of ascending node: 222.5133°
argument of perigee: 164.8744°
revolutions per day: 15.06633388
mean anomaly at epoch: 195.1392°
orbit number at epoch: 0

The dashed part of the orbit path shows where the satellite is in the earth's shadow,  

DLR